Location: Shepherdstown, WV
(39.4326°N, 77.8042°W)
Time: 08:55:53
(UTC-04:00)

Courier 1B - All Passes

Search period start: 04 August 2021 00:00
Search period end: 14 August 2021 00:00
Orbit: 962 x 1209 km, 28.3° (Epoch: 03 August)

Date Brightness Start Highest point End Pass type
(mag) Time Alt. Az. Time Alt. Az. Time Alt. Az.
04 Aug - 17:22:35 10° SSW 17:27:33 18° SSE 17:32:36 10° ESE daylight
04 Aug - 19:14:11 10° SW 19:20:57 33° S 19:27:43 10° ESE daylight
04 Aug - 21:07:36 10° WSW 21:14:35 36° S 21:21:26 10° ESE visible
04 Aug - 23:02:06 10° WSW 23:08:04 24° SSW 23:13:50 10° SSE visible
05 Aug - 16:30:10 10° S 16:33:55 14° SSE 16:37:41 10° ESE daylight
05 Aug - 18:20:42 10° SW 18:27:11 29° SSE 18:33:44 10° ESE daylight
05 Aug - 20:13:45 10° WSW 20:20:47 37° S 20:27:45 10° ESE daylight
05 Aug - 22:07:55 10° WSW 22:14:22 28° SSW 22:20:39 10° SE visible
06 Aug - 00:04:19 10° SW 00:07:34 13° SSW 00:10:45 10° S visible
06 Aug - 15:39:41 10° SSE 15:40:18 10° SSE 15:40:56 10° SE daylight
06 Aug - 17:27:25 10° SW 17:33:26 25° SSE 17:39:35 10° ESE daylight
06 Aug - 19:20:01 10° WSW 19:26:58 36° S 19:33:58 10° ESE daylight
06 Aug - 21:13:51 10° WSW 21:20:36 32° SSW 21:27:16 10° SE visible
06 Aug - 23:09:12 10° WSW 23:13:57 17° SSW 23:18:36 10° SSE visible
07 Aug - 16:34:22 10° SSW 16:39:45 21° SSE 16:45:16 10° ESE daylight
07 Aug - 18:26:23 10° SW 18:33:10 34° S 18:40:05 10° ESE daylight
07 Aug - 20:19:56 10° WSW 20:26:49 35° S 20:33:42 10° SE daylight
07 Aug - 22:14:39 10° WSW 22:20:17 22° SSW 22:25:49 10° SSE visible
08 Aug - 15:41:40 10° SSW 15:46:06 17° SSE 15:50:40 10° ESE daylight
08 Aug - 17:32:53 10° SW 17:39:24 32° SSE 17:46:06 10° ESE daylight
08 Aug - 19:26:05 10° WSW 19:33:01 36° S 19:40:01 10° ESE daylight
08 Aug - 21:20:23 10° WSW 21:26:34 26° SSW 21:32:42 10° SE visible
08 Aug - 23:18:20 10° SW 23:19:44 11° SSW 23:21:08 10° SSW visible
09 Aug - 14:49:39 10° S 14:52:31 13° SSE 14:55:26 10° SE daylight
09 Aug - 16:39:32 10° SW 16:45:40 28° SSE 16:52:00 10° ESE daylight
09 Aug - 18:32:21 10° WSW 18:39:12 36° S 18:46:14 10° ESE daylight
09 Aug - 20:26:18 10° WSW 20:32:49 29° SSW 20:39:21 10° SE daylight
09 Aug - 22:22:11 10° WSW 22:26:07 15° SSW 22:30:02 10° S visible
10 Aug - 15:46:24 10° SSW 15:51:59 24° SSE 15:57:47 10° ESE daylight
10 Aug - 17:38:43 10° WSW 17:45:25 35° S 17:52:21 10° ESE daylight
10 Aug - 19:32:21 10° WSW 19:39:02 32° S 19:45:50 10° SE daylight
10 Aug - 21:27:23 10° WSW 21:32:27 19° SSW 21:37:32 10° SSE visible
11 Aug - 14:53:32 10° SSW 14:58:22 19° SSE 15:03:21 10° ESE daylight
11 Aug - 16:45:13 10° SW 16:51:39 33° S 16:58:23 10° ESE daylight
11 Aug - 18:38:31 10° WSW 18:45:16 35° S 18:52:10 10° SE daylight
11 Aug - 20:33:00 10° WSW 20:38:45 23° SSW 20:44:33 10° SSE visible
12 Aug - 14:01:06 10° S 14:04:47 15° SSE 14:08:35 10° ESE daylight
12 Aug - 15:51:51 10° SW 15:57:57 30° SSE 16:04:20 10° ESE daylight
12 Aug - 17:44:49 10° WSW 17:51:29 36° S 17:58:24 10° ESE daylight
12 Aug - 19:38:52 10° WSW 19:45:02 26° SSW 19:51:17 10° SE daylight
12 Aug - 21:35:51 10° SW 21:38:17 12° SSW 21:40:44 10° S visible
13 Aug - 13:09:56 10° SSE 13:11:16 11° SSE 13:12:37 10° SE daylight
13 Aug - 14:58:39 10° SW 15:04:17 26° SSE 15:10:11 10° ESE daylight
13 Aug - 16:51:12 10° WSW 16:57:43 35° S 17:04:31 10° ESE daylight
13 Aug - 18:44:55 10° WSW 18:51:17 30° SSW 18:57:49 10° SE daylight
13 Aug - 20:40:26 10° WSW 20:44:38 15° SSW 20:48:52 10° S visible
